• In United Kingdom
  • List of Countries
  • For 7 days
  • Water Temperature
  • Satellite Maps
  • Weather Map
  • Weather Widgets
  • user-avatar
    Login

    Hourly Weather Skarzynek

    Today, 22 October, Monday

    Time Temperature Precipitation Wind Pressure Humidity
    00:00 +7°C° 0 mm 1 mps 760 mmHg 82%
    01:00 +6°C° 0 mm 1 mps 760 mmHg 83%
    02:00 +5°C° 0 mm 2 mps 760 mmHg 84%
    03:00 +5°C° 0 mm 2 mps 760 mmHg 85%
    04:00 +4°C° 0 mm 2 mps 759 mmHg 86%
    05:00 +4°C° 0 mm 2 mps 759 mmHg 86%
    06:00 +4°C° 0 mm 2 mps 759 mmHg 86%
    07:00 +4°C° 0 mm 2 mps 759 mmHg 82%
    08:00 +5°C° 0 mm 3 mps 759 mmHg 76%
    09:00 +8°C° 0 mm 3 mps 758 mmHg 70%
    10:00 +8°C° 0 mm 4 mps 758 mmHg 63%
    11:00 +10°C° 0 mm 4 mps 758 mmHg 60%
    12:00 +11°C° 0 mm 4 mps 757 mmHg 57%
    13:00 +13°C° 0 mm 4 mps 757 mmHg 54%
    14:00 +12°C° 0 mm 4 mps 756 mmHg 57%
    15:00 +12°C° 0 mm 4 mps 756 mmHg 61%
    16:00 +12°C° 0 mm 4 mps 756 mmHg 64%
    17:00 +11°C° 0.3 mm 4 mps 756 mmHg 70%
    18:00 +9°C° 0.3 mm 5 mps 756 mmHg 75%
    19:00 +9°C° 0.3 mm 5 mps 756 mmHg 81%
    20:00 +8°C° 0 mm 5 mps 757 mmHg 79%
    21:00 +7°C° 0 mm 4 mps 757 mmHg 78%
    22:00 +7°C° 0 mm 4 mps 757 mmHg 77%
    23:00 +6°C° 0 mm 4 mps 757 mmHg 80%

    Tomorrow, 23 October, Tuesday

    Time Temperature Precipitation Wind Pressure Humidity
    00:00 +5°C° 0 mm 4 mps 757 mmHg 82%
    01:00 +5°C° 0 mm 4 mps 757 mmHg 84%
    02:00 +5°C° 0 mm 4 mps 756 mmHg 85%
    03:00 +4°C° 0 mm 4 mps 756 mmHg 86%
    04:00 +4°C° 0 mm 4 mps 755 mmHg 86%
    05:00 +3°C° 0 mm 5 mps 754 mmHg 84%
    06:00 +4°C° 0 mm 6 mps 754 mmHg 81%
    07:00 +4°C° 0 mm 6 mps 753 mmHg 79%
    08:00 +4°C° 0.6 mm 7 mps 752 mmHg 78%
    09:00 +5°C° 0.6 mm 8 mps 751 mmHg 76%
    10:00 +5°C° 0.6 mm 9 mps 749 mmHg 75%
    11:00 +5°C° 1 mm 10 mps 748 mmHg 76%
    12:00 +5°C° 1 mm 10 mps 747 mmHg 77%
    13:00 +4°C° 1 mm 11 mps 745 mmHg 77%
    14:00 +6°C° 0.6 mm 11 mps 744 mmHg 78%
    15:00 +7°C° 0.6 mm 11 mps 743 mmHg 79%
    16:00 +7°C° 0.6 mm 12 mps 742 mmHg 80%
    17:00 +8°C° 1.5 mm 11 mps 741 mmHg 82%
    18:00 +8°C° 1.5 mm 10 mps 741 mmHg 84%
    19:00 +8°C° 1.5 mm 9 mps 740 mmHg 86%
    20:00 +8°C° 1.9 mm 9 mps 739 mmHg 86%
    21:00 +8°C° 1.9 mm 9 mps 738 mmHg 86%
    22:00 +9°C° 1.9 mm 8 mps 738 mmHg 86%
    23:00 +9°C° 1.2 mm 8 mps 737 mmHg 83%

    Day after tomorrow, 24 October, Wednesday

    Time Temperature Precipitation Wind Pressure Humidity
    00:00 +9°C° 1.2 mm 8 mps 736 mmHg 80%
    01:00 +7°C° 1.2 mm 8 mps 736 mmHg 77%
    02:00 +7°C° 0.2 mm 9 mps 736 mmHg 72%
    03:00 +6°C° 0.2 mm 10 mps 736 mmHg 67%
    04:00 +4°C° 0.2 mm 12 mps 736 mmHg 62%
    05:00 +4°C° 0 mm 11 mps 737 mmHg 60%
    06:00 +3°C° 0 mm 10 mps 738 mmHg 59%
    07:00 +3°C° 0 mm 9 mps 739 mmHg 57%
    08:00 +3°C° 0 mm 10 mps 740 mmHg 53%
    09:00 +4°C° 0 mm 11 mps 741 mmHg 49%
    10:00 +4°C° 0 mm 12 mps 741 mmHg 45%
    11:00 +5°C° 0 mm 12 mps 741 mmHg 45%
    12:00 +5°C° 0 mm 12 mps 742 mmHg 45%
    13:00 +5°C° 0 mm 12 mps 742 mmHg 45%
    14:00 +6°C° 0 mm 11 mps 742 mmHg 46%
    15:00 +6°C° 0 mm 11 mps 743 mmHg 47%
    16:00 +6°C° 0 mm 10 mps 744 mmHg 48%
    17:00 +5°C° 0 mm 10 mps 744 mmHg 50%
    18:00 +3°C° 0 mm 9 mps 745 mmHg 52%
    19:00 +3°C° 0 mm 9 mps 746 mmHg 54%
    20:00 +4°C° 0 mm 8 mps 746 mmHg 56%
    21:00 +3°C° 0 mm 7 mps 747 mmHg 58%
    22:00 +3°C° 0 mm 7 mps 747 mmHg 60%
    23:00 +3°C° 0 mm 6 mps 747 mmHg 63%

    25 October, Thursday

    Time Temperature Precipitation Wind Pressure Humidity
    00:00 +3°C° 0 mm 6 mps 747 mmHg 66%
    01:00 +2°C° 0 mm 6 mps 747 mmHg 69%
    02:00 +3°C° 0 mm 6 mps 746 mmHg 71%
    03:00 +3°C° 0 mm 5 mps 746 mmHg 74%
    04:00 +3°C° 0 mm 5 mps 745 mmHg 77%
    05:00 +3°C° 0.7 mm 6 mps 744 mmHg 81%
    06:00 +4°C° 0.7 mm 6 mps 743 mmHg 85%
    07:00 +4°C° 0.7 mm 7 mps 742 mmHg 89%
    08:00 +6°C° 0.6 mm 8 mps 741 mmHg 85%
    09:00 +7°C° 0.6 mm 9 mps 741 mmHg 81%
    10:00 +9°C° 0.6 mm 10 mps 740 mmHg 76%
    11:00 +9°C° 0.2 mm 10 mps 740 mmHg 73%
    12:00 +9°C° 0.2 mm 10 mps 740 mmHg 69%
    13:00 +9°C° 0.2 mm 10 mps 741 mmHg 65%
    14:00 +10°C° 0 mm 9 mps 741 mmHg 66%
    15:00 +9°C° 0 mm 8 mps 742 mmHg 67%
    16:00 +9°C° 0 mm 7 mps 743 mmHg 67%
    17:00 +9°C° 0 mm 7 mps 743 mmHg 70%
    18:00 +8°C° 0 mm 7 mps 744 mmHg 72%
    19:00 +8°C° 0 mm 7 mps 744 mmHg 74%
    20:00 +8°C° 0 mm 7 mps 744 mmHg 76%
    21:00 +6°C° 0 mm 7 mps 745 mmHg 78%
    22:00 +6°C° 0 mm 7 mps 745 mmHg 80%
    23:00 +7°C° 0 mm 6 mps 745 mmHg 82%

    26 October, Friday

    Time Temperature Precipitation Wind Pressure Humidity
    00:00 +5°C° 0 mm 6 mps 746 mmHg 84%
    01:00 +5°C° 0 mm 6 mps 746 mmHg 86%
    02:00 +6°C° 0 mm 5 mps 746 mmHg 88%
    03:00 +5°C° 0 mm 5 mps 746 mmHg 90%
    04:00 +5°C° 0 mm 4 mps 747 mmHg 92%
    05:00 +5°C° 0 mm 4 mps 747 mmHg 92%
    06:00 +5°C° 0 mm 3 mps 747 mmHg 92%
    07:00 +5°C° 0 mm 3 mps 747 mmHg 92%
    08:00 +7°C° 0 mm 3 mps 747 mmHg 87%
    09:00 +8°C° 0 mm 3 mps 747 mmHg 83%
    10:00 +9°C° 0 mm 3 mps 747 mmHg 78%
    11:00 +10°C° 0 mm 4 mps 747 mmHg 73%
    12:00 +10°C° 0 mm 4 mps 746 mmHg 67%
    13:00 +11°C° 0 mm 4 mps 746 mmHg 61%
    14:00 +11°C° 0 mm 4 mps 746 mmHg 64%
    15:00 +10°C° 0 mm 3 mps 745 mmHg 67%
    16:00 +9°C° 0 mm 3 mps 745 mmHg 70%
    17:00 +9°C° 0 mm 3 mps 745 mmHg 71%
    18:00 +9°C° 0 mm 3 mps 745 mmHg 73%
    19:00 +8°C° 0 mm 3 mps 745 mmHg 75%
    20:00 +7°C° 0 mm 4 mps 744 mmHg 75%
    21:00 +7°C° 0 mm 4 mps 744 mmHg 76%
    22:00 +7°C° 0 mm 4 mps 744 mmHg 77%
    23:00 +7°C° 0 mm 4 mps 743 mmHg 78%

    27 October, Saturday

    Time Temperature Precipitation Wind Pressure Humidity
    00:00 +8°C° 0 mm 4 mps 743 mmHg 80%
    01:00 +8°C° 0 mm 5 mps 742 mmHg 82%
    02:00 +8°C° 0.1 mm 4 mps 742 mmHg 84%
    03:00 +8°C° 0.1 mm 4 mps 742 mmHg 86%
    04:00 +9°C° 0.1 mm 3 mps 742 mmHg 88%
    05:00 +8°C° 0 mm 3 mps 741 mmHg 89%
    06:00 +8°C° 0 mm 3 mps 741 mmHg 91%
    07:00 +8°C° 0 mm 3 mps 741 mmHg 92%
    08:00 +9°C° 0 mm 3 mps 741 mmHg 87%
    09:00 +10°C° 0 mm 3 mps 742 mmHg 82%
    10:00 +11°C° 0 mm 4 mps 742 mmHg 76%
    11:00 +11°C° 0 mm 3 mps 742 mmHg 74%
    12:00 +11°C° 0 mm 3 mps 741 mmHg 71%
    13:00 +13°C° 0 mm 2 mps 741 mmHg 68%
    14:00 +12°C° 0 mm 2 mps 741 mmHg 70%
    15:00 +12°C° 0 mm 1 mps 741 mmHg 72%
    16:00 +10°C° 0 mm 0 mps 741 mmHg 74%
    17:00 +11°C° 0.3 mm 1 mps 741 mmHg 77%
    18:00 +10°C° 0.3 mm 2 mps 740 mmHg 80%
    19:00 +9°C° 0.3 mm 3 mps 740 mmHg 83%
    20:00 +9°C° 1.3 mm 3 mps 740 mmHg 85%
    21:00 +8°C° 1.3 mm 4 mps 739 mmHg 88%
    22:00 +7°C° 1.3 mm 5 mps 739 mmHg 90%
    23:00 +7°C° 1 mm 5 mps 739 mmHg 90%

    28 October, Sunday

    Time Temperature Precipitation Wind Pressure Humidity
    00:00 +7°C° 1 mm 5 mps 738 mmHg 90%
    01:00 +7°C° 1 mm 5 mps 738 mmHg 90%
    02:00 +7°C° 0.5 mm 5 mps 737 mmHg 90%
    03:00 +7°C° 0.5 mm 5 mps 737 mmHg 90%
    04:00 +7°C° 0.5 mm 5 mps 737 mmHg 89%
    05:00 +7°C° 0.2 mm 4 mps 737 mmHg 89%
    06:00 +7°C° 0.2 mm 4 mps 737 mmHg 89%
    07:00 +7°C° 0.2 mm 4 mps 737 mmHg 89%
    08:00 +7°C° 0.6 mm 4 mps 737 mmHg 89%
    09:00 +8°C° 0.6 mm 3 mps 737 mmHg 89%
    10:00 +8°C° 0.6 mm 3 mps 738 mmHg 89%
    11:00 +8°C° 0.2 mm 3 mps 738 mmHg 88%
    12:00 +8°C° 0.2 mm 3 mps 738 mmHg 87%
    13:00 +8°C° 0.2 mm 3 mps 738 mmHg 86%
    14:00 +7°C° 0.1 mm 4 mps 739 mmHg 86%
    15:00 +7°C° 0.1 mm 4 mps 740 mmHg 85%
    16:00 +7°C° 0.1 mm 5 mps 740 mmHg 85%
    17:00 +6°C° 0 mm 5 mps 741 mmHg 85%
    18:00 +6°C° 0 mm 5 mps 742 mmHg 85%
    19:00 +5°C° 0 mm 5 mps 743 mmHg 85%
    20:00 +5°C° 0 mm 5 mps 744 mmHg 85%
    21:00 +5°C° 0 mm 5 mps 745 mmHg 84%
    22:00 +5°C° 0 mm 5 mps 746 mmHg 83%
    23:00 +3°C° 0 mm 5 mps 747 mmHg 85%
    Show more